Date String (YYYY-MM-DD hh:mm:ss) UTC,Instrument flags,absolute air pressure of the measurement (hPa),sample flow rate (lpm),inlet stack bypass flow (lpm),air temperature of the measurement (°C),ambient temperature measured by the external sensor (°C),aerosol sample conditioner tube jacket temperature (°C),OPC LED temperature (°C),internal box temperature (°C),relative humidity of the measurement (%),span deviation,mass concentration of particles derived from Lorenz-Mie calculation of OPC scattering (μg/m³),mass concentration of particles derived from Lorenz-Mie calculation of OPC scattering (μg/m³),mass concentration of particles derived from Lorenz-Mie calculation of OPC scattering (μg/m³)
DateTimeUTC,F1_M11,P_M11,Q1_M11,Q2_M11,T1_M11,T2_M11,T3_M11,T4_M11,T5_M11,U1_M11,ZSPAN_M11,X2_M11,X0_M11,X1_M11
2024-05-14 16:00:00,SystemResetWarning,0824.9,5.00,000.00,025.1,024.6,000.0,033.0,026.9,018.7,0000.0,0003.16,0005.81,0002.46
2024-05-14 16:01:00,SystemResetWarning,0824.9,4.99,000.00,025.1,024.3,000.0,033.1,026.8,017.9,0000.0,0003.18,0005.71,0002.46
2024-05-14 16:02:00,SystemResetWarning,0824.9,5.00,000.00,024.8,022.4,000.0,033.2,025.8,018.8,0000.0,0003.22,0006.40,0002.48
2024-05-14 16:03:00,SystemResetWarning,0824.9,5.02,000.00,024.5,021.5,000.0,033.2,025.3,019.5,0000.0,0003.26,0007.56,0002.49
2024-05-14 16:04:00,SystemResetWarning,0824.9,5.01,000.00,024.4,022.0,000.0,033.1,025.5,019.7,0000.0,0003.24,0007.54,0002.49
2024-05-14 16:05:00,SystemResetWarning,0824.9,5.00,000.00,024.4,022.4,000.0,033.0,025.6,018.7,0000.0,0003.24,0007.45,0002.50
2024-05-14 16:06:00,SystemResetWarning,0824.8,4.99,000.00,024.4,022.7,000.0,032.9,025.9,019.3,0000.0,0003.23,0007.28,0002.51
2024-05-14 16:07:00,SystemResetWarning,0824.9,5.01,000.00,024.5,023.0,000.0,032.8,026.1,019.4,0000.0,0003.22,0007.33,0002.50
2024-05-14 16:08:00,SystemResetWarning,0824.8,5.01,000.00,024.5,023.3,000.0,032.8,026.2,019.5,0000.0,0003.24,0007.58,0002.52
2024-05-14 16:09:00,SystemResetWarning,0824.8,5.00,000.00,024.5,023.5,000.0,032.8,026.3,019.7,0000.0,0003.24,0007.59,0002.54
2024-05-14 16:10:00,SystemResetWarning,0824.7,5.00,000.00,024.6,023.7,000.0,032.8,026.4,019.2,0000.0,0003.22,0007.55,0002.53
2024-05-14 16:11:00,SystemResetWarning,0824.8,5.00,000.00,024.7,023.9,000.0,032.8,026.5,018.8,0000.0,0003.22,0007.47,0002.54
2024-05-14 16:12:00,SystemResetWarning,0824.8,4.99,000.00,024.7,024.1,000.0,032.8,026.6,019.1,0000.0,0003.22,0007.41,0002.55
2024-05-14 16:13:00,SystemResetWarning,0824.8,5.00,000.00,024.8,024.2,000.0,032.8,026.6,019.3,0000.0,0003.21,0007.09,0002.54
2024-05-14 16:14:00,SystemResetWarning,0824.8,5.01,000.00,024.9,024.3,000.0,032.9,026.7,018.7,0000.0,0003.20,0006.58,0002.53
2024-05-14 16:15:00,SystemResetWarning,0824.8,5.01,000.00,024.9,024.4,000.0,032.9,026.8,018.9,0000.0,0003.19,0006.47,0002.53
2024-05-14 16:16:00,SystemResetWarning,0824.8,5.01,000.00,025.0,024.5,000.0,032.9,026.8,018.2,0000.0,0003.19,0006.39,0002.52
2024-05-14 16:17:00,SystemResetWarning,0824.8,4.98,000.00,025.0,024.6,000.0,033.0,026.9,018.5,0000.0,0003.19,0006.79,0002.51
2024-05-14 16:18:00,SystemResetWarning,0824.8,5.00,000.00,025.1,024.4,000.0,033.0,026.7,017.9,0000.0,0003.20,0006.66,0002.51
2024-05-14 16:19:00,SystemResetWarning,0824.7,5.00,000.00,024.8,022.6,000.0,033.1,025.9,018.1,0000.0,0003.22,0006.39,0002.52
2024-05-14 16:20:00,SystemResetWarning,0824.7,5.02,000.00,024.5,021.8,000.0,033.1,025.4,018.4,0000.0,0003.22,0006.37,0002.53
2024-05-14 16:21:00,SystemResetWarning,0824.8,5.01,000.00,024.4,022.2,000.0,033.1,025.5,018.9,0000.0,0003.24,0006.50,0002.56
2024-05-14 16:22:00,SystemResetWarning,0824.7,4.98,000.00,024.4,022.5,000.0,032.9,025.7,018.9,0000.0,0003.24,0006.46,0002.57
2024-05-14 16:23:00,SystemResetWarning,0824.7,5.01,000.00,024.4,022.8,000.0,032.9,025.9,019.7,0000.0,0003.21,0006.35,0002.55
2024-05-14 16:24:00,SystemResetWarning,0824.7,5.01,000.00,024.5,023.1,000.0,032.8,026.1,019.4,0000.0,0003.19,0006.28,0002.55
2024-05-14 16:25:00,SystemResetWarning,0824.7,5.00,000.00,024.5,023.4,000.0,032.8,026.2,019.6,0000.0,0003.15,0005.41,0002.55
2024-05-14 16:26:00,SystemResetWarning,0824.7,4.99,000.00,024.6,023.6,000.0,032.8,026.3,019.2,0000.0,0003.15,0005.36,0002.56
2024-05-14 16:27:00,SystemResetWarning,0824.7,5.00,000.00,024.6,023.8,000.0,032.8,026.5,018.9,0000.0,0003.17,0005.44,0002.56
2024-05-14 16:28:00,SystemResetWarning,0824.7,5.00,000.00,024.7,024.0,000.0,032.8,026.5,018.8,0000.0,0003.18,0005.24,0002.57
2024-05-14 16:29:00,SystemResetWarning,0824.7,5.01,000.00,024.8,024.1,000.0,032.8,026.6,018.8,0000.0,0003.20,0005.69,0002.58
2024-05-14 16:30:00,SystemResetWarning,0824.7,5.01,000.00,024.8,024.2,000.0,032.8,026.7,019.1,0000.0,0003.18,0005.66,0002.55
2024-05-14 16:31:00,SystemResetWarning,0824.7,5.00,000.00,024.9,024.3,000.0,032.8,026.7,019.5,0000.0,0003.17,0005.65,0002.52
2024-05-14 16:32:00,SystemResetWarning,0824.7,5.01,000.00,025.0,024.5,000.0,032.9,026.8,017.8,0000.0,0003.16,0005.57,0002.50
2024-05-14 16:33:00,SystemResetWarning,0824.7,4.99,000.00,025.0,024.5,000.0,032.9,026.8,018.1,0000.0,0003.14,0005.53,0002.48
2024-05-14 16:34:00,SystemResetWarning,0824.6,4.99,000.00,024.9,023.4,000.0,033.0,026.3,018.2,0000.0,0003.17,0005.55,0002.49
2024-05-14 16:35:00,SystemResetWarning,0824.7,5.00,000.00,024.6,021.6,000.0,033.1,025.4,018.0,0000.0,0003.21,0005.60,0002.49
2024-05-14 16:36:00,SystemResetWarning,0824.7,5.01,000.00,024.3,021.7,000.0,033.1,025.3,017.8,0000.0,0003.27,0005.88,0002.51
2024-05-14 16:37:00,SystemResetWarning,0824.6,5.00,000.00,024.3,022.2,000.0,032.9,025.5,018.4,0000.0,0003.29,0006.50,0002.52
2024-05-14 16:38:00,SystemResetWarning,0824.7,4.99,000.00,024.3,022.5,000.0,032.8,025.7,019.3,0000.0,0003.27,0007.20,0002.52
2024-05-14 16:39:00,SystemResetWarning,0824.7,5.01,000.00,024.4,022.9,000.0,032.8,026.0,019.3,0000.0,0003.22,0006.99,0002.52
2024-05-14 16:40:00,SystemResetWarning,0824.7,5.00,000.00,024.4,023.1,000.0,032.7,026.1,019.2,0000.0,0003.19,0006.33,0002.51
2024-05-14 16:41:00,SystemResetWarning,0824.7,4.98,000.00,024.5,023.4,000.0,032.7,026.2,019.1,0000.0,0003.19,0006.34,0002.53
2024-05-14 16:42:00,SystemResetWarning,0824.7,5.03,000.00,024.5,023.6,000.0,032.7,026.4,018.8,0000.0,0003.19,0006.34,0002.55
2024-05-14 16:43:00,SystemResetWarning,0824.7,4.99,000.00,024.6,023.8,000.0,032.7,026.4,018.3,0000.0,0003.19,0006.28,0002.57
2024-05-14 16:44:00,SystemResetWarning,0824.7,4.99,000.00,024.7,024.0,000.0,032.7,026.5,018.8,0000.0,0003.19,0006.23,0002.58
2024-05-14 16:45:00,SystemResetWarning,0824.7,5.01,000.00,024.7,024.1,000.0,032.8,026.6,018.6,0000.0,0003.19,0006.93,0002.58
2024-05-14 16:46:00,SystemResetWarning,0824.7,5.02,000.00,024.8,024.2,000.0,032.8,026.7,018.8,0000.0,0003.15,0007.68,0002.59
2024-05-14 16:47:00,SystemResetWarning,0824.7,5.00,000.00,024.9,024.4,000.0,032.8,026.7,018.3,0000.0,0003.10,0008.09,0002.58
2024-05-14 16:48:00,SystemResetWarning,0824.7,5.00,000.00,024.9,024.4,000.0,032.9,026.8,018.1,0000.0,0003.07,0008.33,0002.56
2024-05-14 16:49:00,SystemResetWarning,0824.7,4.98,000.00,024.8,023.3,000.0,033.0,026.2,018.8,0000.0,0003.09,0007.79,0002.55
2024-05-14 16:50:00,SystemResetWarning,0824.7,5.01,000.00,024.5,021.6,000.0,033.0,025.2,018.5,0000.0,0003.11,0007.83,0002.55
2024-05-14 16:51:00,SystemResetWarning,0824.7,5.01,000.00,024.3,021.8,000.0,033.0,025.2,018.9,0000.0,0003.14,0007.91,0002.55
2024-05-14 16:52:00,SystemResetWarning,0824.7,4.99,000.00,024.2,022.2,000.0,032.9,025.5,019.0,0000.0,0003.14,0007.92,0002.56
2024-05-14 16:53:00,SystemResetWarning,0824.7,5.00,000.00,024.3,022.6,000.0,032.8,025.7,020.0,0000.0,0003.13,0007.90,0002.56
2024-05-14 16:54:00,SystemResetWarning,0824.7,5.02,000.00,024.3,022.9,000.0,032.7,025.9,019.4,0000.0,0003.13,0007.98,0002.54
2024-05-14 16:55:00,SystemResetWarning,0824.7,5.00,000.00,024.4,023.2,000.0,032.6,026.1,018.9,0000.0,0003.14,0008.77,0002.53
2024-05-14 16:56:00,SystemResetWarning,0824.7,5.00,000.00,024.5,023.4,000.0,032.6,026.2,018.9,0000.0,0003.13,0008.63,0002.51
2024-05-14 16:57:00,SystemResetWarning,0824.6,5.00,000.00,024.5,023.7,000.0,032.6,026.3,019.1,0000.0,0003.14,0008.02,0002.49
2024-05-14 16:58:00,SystemResetWarning,0824.7,4.99,000.00,024.6,023.8,000.0,032.6,026.4,019.9,0000.0,0003.15,0007.95,0002.48
2024-05-14 16:59:00,SystemResetWarning,0824.6,5.00,000.00,024.7,024.0,000.0,032.7,026.5,018.8,0000.0,0003.19,0007.67,0002.48
